TimePST,TemperatureF,Dew PointF,Humidity,Sea Level PressureIn,VisibilityMPH,Wind Direction,Wind SpeedMPH,Gust SpeedMPH,PrecipitationIn,Events,Conditions,WindDirDegrees,DateUTC
12:53 AM,60.1,41.0,49,30.09,10.0,NW,12.7,-,N/A,,Clear,310,2012-12-28 08:53:00
1:53 AM,60.1,39.9,47,30.09,10.0,NW,15.0,-,N/A,,Clear,320,2012-12-28 09:53:00
2:53 AM,60.1,37.9,44,30.09,10.0,NW,11.5,-,N/A,,Clear,310,2012-12-28 10:53:00
3:53 AM,57.0,37.9,49,30.09,10.0,NW,8.1,-,N/A,,Clear,310,2012-12-28 11:53:00
4:53 AM,55.0,37.9,53,30.09,10.0,WNW,6.9,-,N/A,,Clear,290,2012-12-28 12:53:00
5:53 AM,57.9,37.9,47,30.09,10.0,WNW,5.8,-,N/A,,Clear,290,2012-12-28 13:53:00
5:58 AM,53.6,37.4,54,30.11,7.0,WNW,4.6,-,N/A,,Partly Cloudy,290,2012-12-28 13:58:00
6:53 AM,50.2,37.9,63,30.10,7.0,NW,3.5,-,N/A,,Scattered Clouds,310,2012-12-28 14:53:00
7:53 AM,48.9,41.0,74,30.11,7.0,Calm,Calm,-,N/A,,Partly Cloudy,0,2012-12-28 15:53:00
8:53 AM,51.1,43.0,74,30.14,7.0,NE,3.5,-,N/A,,Scattered Clouds,40,2012-12-28 16:53:00
9:53 AM,53.4,44.1,71,30.15,7.0,East,4.6,-,N/A,,Scattered Clouds,90,2012-12-28 17:53:00
10:53 AM,55.0,45.0,69,30.14,7.0,ESE,6.9,-,N/A,,Scattered Clouds,120,2012-12-28 18:53:00
11:53 AM,55.4,45.0,68,30.11,7.0,ESE,6.9,-,N/A,,Scattered Clouds,110,2012-12-28 19:53:00
12:53 PM,56.1,46.9,71,30.08,7.0,East,3.5,-,N/A,,Scattered Clouds,100,2012-12-28 20:53:00
1:53 PM,57.4,44.1,61,30.08,7.0,Variable,4.6,-,N/A,,Scattered Clouds,0,2012-12-28 21:53:00
2:53 PM,56.5,44.1,63,30.07,7.0,ESE,5.8,-,N/A,,Scattered Clouds,110,2012-12-28 22:53:00
3:53 PM,57.9,44.1,60,30.07,7.0,South,3.5,-,N/A,,Scattered Clouds,180,2012-12-28 23:53:00
4:53 PM,66.9,44.1,44,30.06,10.0,SE,4.6,-,N/A,,Clear,130,2012-12-29 00:53:00
5:53 PM,66.9,44.1,44,30.07,10.0,South,4.6,-,N/A,,Clear,170,2012-12-29 01:53:00
6:53 PM,66.0,43.0,43,30.08,10.0,South,5.8,-,N/A,,Clear,190,2012-12-29 02:53:00
7:53 PM,64.0,42.1,45,30.08,10.0,SW,4.6,-,N/A,,Clear,220,2012-12-29 03:53:00
8:53 PM,64.0,41.0,43,30.07,10.0,West,8.1,-,N/A,,Clear,260,2012-12-29 04:53:00
9:53 PM,62.1,39.9,44,30.07,10.0,West,8.1,-,N/A,,Clear,270,2012-12-29 05:53:00
10:53 PM,62.1,39.9,44,30.06,10.0,West,5.8,-,N/A,,Clear,270,2012-12-29 06:53:00
11:53 PM,60.1,42.1,51,30.06,10.0,West,3.5,-,N/A,,Clear,260,2012-12-29 07:53:00